period_start,C,m1,H,J0,J1,J2,J3,J4,J5,JA,JB,JC,JD,JJ,JK,JN,#
2015-07-22 00:04:42,-0.00,0.02,0.00,23.50,26.61,29.05,4.77,24.01,1010.27,2042.98,3448.99,3237.00,3546.97,350.33,345.16,1.41,0000 0000 0000 0000 000000
2015-07-22 00:09:44,0.01,0.02,0.00,23.51,26.65,29.08,4.71,24.03,1010.27,2042.84,3448.48,3236.91,3546.28,349.42,344.60,1.44,0000 0000 0000 0000 000000
2015-07-22 00:14:45,-0.05,0.01,0.00,23.52,26.67,29.11,4.74,23.98,1010.27,2042.18,3448.02,3236.21,3545.99,350.47,345.24,1.47,0000 0000 0000 0000 000000
2015-07-22 00:19:46,0.00,0.01,0.00,23.54,26.71,29.14,4.70,24.02,1010.27,2042.04,3447.95,3236.00,3545.87,349.52,344.53,1.50,0000 0000 0000 0000 000000
2015-07-22 00:24:47,0.03,0.01,0.00,23.55,26.73,29.16,4.69,23.96,1010.21,2042.00,3447.33,3235.97,3545.17,349.79,344.52,1.52,0000 0000 0000 0000 000000
2015-07-22 00:29:48,0.03,0.02,0.00,23.57,26.76,29.19,4.72,24.12,1009.99,2042.00,3447.01,3235.59,3545.00,350.07,345.01,1.55,0000 0000 0000 0000 000000
2015-07-22 00:34:50,0.01,0.02,0.00,23.57,26.78,29.19,4.64,24.07,1009.81,2042.00,3446.97,3235.07,3544.87,349.41,344.04,1.58,0000 0000 0000 0000 000000
2015-07-22 00:39:51,0.03,0.02,0.00,23.59,26.81,29.22,4.67,24.02,1009.84,2041.98,3446.58,3235.00,3544.18,349.47,344.16,1.61,0000 0000 0000 0000 000000
2015-07-22 00:44:52,0.01,0.02,0.00,23.61,26.83,29.24,4.69,24.07,1009.95,2041.97,3446.06,3234.95,3544.00,350.07,344.78,1.64,0000 0000 0000 0000 000000
2015-07-22 00:49:53,-0.00,0.02,0.00,23.62,26.85,29.26,4.76,24.03,1010.01,2041.70,3445.97,3234.31,3543.86,350.08,344.77,1.67,0000 0000 0000 0000 000000
2015-07-22 00:54:54,-0.02,0.02,0.00,23.64,26.87,29.29,4.70,24.02,1009.99,2041.36,3445.38,3234.02,3543.18,349.59,344.26,1.70,0000 0000 0000 0000 000000
2015-07-22 00:59:55,-0.02,0.02,0.00,23.65,26.89,29.30,4.66,24.01,1009.86,2041.05,3445.00,3233.99,3542.99,349.35,344.23,1.73,0000 0000 0000 0000 000000
2015-07-22 01:04:56,0.02,0.02,0.00,23.67,26.91,29.32,4.72,23.98,1009.80,2041.02,3444.94,3233.70,3542.86,350.22,344.80,1.76,0000 0000 0000 0000 000000
2015-07-22 01:09:57,0.05,0.02,0.00,23.67,26.92,29.34,4.74,24.01,1009.80,2041.01,3444.47,3233.17,3542.34,350.06,344.72,1.79,0000 0000 0000 0000 000000
2015-07-22 01:14:59,0.00,0.02,0.00,23.67,26.95,29.35,4.78,23.99,1009.81,2041.00,3444.05,3233.02,3542.01,350.26,344.86,1.82,0000 0000 0000 0000 000000
2015-07-22 01:20:00,0.00,0.02,0.00,23.70,26.96,29.36,4.70,23.98,1009.80,2041.00,3444.00,3233.00,3541.99,349.48,343.95,1.85,0000 0000 0000 0000 000000
2015-07-22 01:25:01,0.01,0.02,0.00,23.72,26.97,29.38,4.74,23.98,1009.79,2041.00,3443.91,3232.98,3541.92,350.37,344.76,1.88,0000 0000 0000 0000 000000
2015-07-22 01:30:02,0.03,0.02,0.00,23.72,27.00,29.39,4.69,24.00,1009.78,2041.00,3443.59,3232.92,3541.48,350.17,344.66,1.91,0000 0000 0000 0000 000000
2015-07-22 01:35:03,0.02,0.02,0.00,23.74,27.01,29.41,4.75,24.00,1009.78,2040.99,3443.09,3232.67,3541.06,349.89,344.44,1.93,0000 0000 0000 0000 000000
2015-07-22 01:40:04,0.02,0.02,0.00,23.75,27.02,29.42,4.67,23.95,1009.78,2040.98,3443.00,3232.10,3541.00,349.77,344.15,1.96,0000 0000 0000 0000 000000
2015-07-22 01:45:06,0.00,0.02,0.00,23.75,27.04,29.43,4.76,23.93,1009.78,2040.97,3442.97,3232.00,3540.98,350.09,344.49,1.99,0000 0000 0000 0000 000000
2015-07-22 01:50:07,0.01,0.02,0.00,23.77,27.05,29.44,4.72,23.88,1009.76,2040.91,3442.40,3232.00,3540.70,350.16,344.68,2.02,0000 0000 0000 0000 000000
2015-07-22 01:55:08,0.01,0.02,0.00,23.78,27.07,29.46,4.72,23.87,1009.75,2040.69,3442.01,3231.66,3540.04,350.28,344.70,2.05,0000 0000 0000 0000 000000
2015-07-22 02:00:09,-0.05,0.02,0.00,23.80,27.07,29.47,4.73,24.22,1009.60,2040.15,3441.56,3231.07,3539.98,349.66,344.10,2.08,0000 0000 0000 0000 000000
2015-07-22 02:05:10,0.02,0.02,0.00,23.80,27.10,29.49,4.72,23.93,1009.35,2040.09,3441.07,3231.00,3539.73,349.95,344.34,2.11,0000 0000 0000 0000 000000
2015-07-22 02:10:11,0.01,0.02,0.00,23.81,27.10,29.49,4.73,24.03,1009.34,2040.03,3441.00,3230.98,3539.09,350.07,344.33,2.14,0000 0000 0000 0000 000000
2015-07-22 02:15:13,0.02,0.02,0.00,23.82,27.12,29.51,4.69,24.01,1009.58,2040.02,3440.84,3230.71,3539.00,350.00,344.45,2.17,0000 0000 0000 0000 000000
2015-07-22 02:20:14,0.04,0.02,0.00,23.83,27.12,29.52,4.74,23.93,1009.40,2040.00,3440.07,3230.07,3538.94,349.97,344.24,2.20,0000 0000 0000 0000 000000
2015-07-22 02:25:15,0.02,0.02,0.00,23.84,27.15,29.53,4.67,23.93,1009.31,2040.00,3440.00,3230.00,3538.28,349.68,344.06,2.23,0000 0000 0000 0000 000000
2015-07-22 02:30:16,0.01,0.02,0.00,23.86,27.15,29.55,4.76,23.93,1009.32,2040.00,3439.69,3229.98,3538.00,350.28,344.36,2.26,0000 0000 0000 0000 000000
2015-07-22 02:35:17,0.03,0.03,0.00,23.85,27.16,29.55,4.73,23.81,1009.30,2040.00,3439.04,3229.60,3537.98,350.47,344.53,2.29,0000 0000 0000 0000 000000
2015-07-22 02:40:19,0.03,0.03,0.00,23.87,27.17,29.57,4.70,23.99,1009.29,2040.00,3438.97,3229.04,3537.54,350.04,344.09,2.32,0000 0000 0000 0000 000000
2015-07-22 02:45:20,0.03,0.03,0.00,23.87,27.19,29.57,4.71,23.99,1009.29,2040.00,3438.32,3229.00,3537.05,349.67,343.80,2.34,0000 0000 0000 0000 000000
2015-07-22 02:50:21,0.00,0.03,0.00,23.88,27.20,29.59,4.66,23.84,1009.29,2039.99,3438.00,3228.97,3537.00,350.44,344.62,2.37,0000 0000 0000 0000 000000
2015-07-22 02:55:22,0.02,0.03,0.00,23.89,27.20,29.59,4.63,23.99,1009.29,2039.98,3437.91,3228.71,3536.94,349.26,343.39,2.40,0000 0000 0000 0000 000000
2015-07-22 03:00:23,0.04,0.03,0.00,23.90,27.21,29.60,4.71,24.02,1009.29,2039.99,3437.38,3228.27,3536.57,349.92,344.31,2.43,0000 0000 0000 0000 000000
2015-07-22 03:05:24,0.02,0.03,0.00,23.90,27.22,29.61,4.67,23.82,1009.29,2039.98,3437.07,3228.03,3536.15,349.61,343.86,2.46,0000 0000 0000 0000 000000
2015-07-22 03:10:26,0.01,0.03,0.00,23.92,27.23,29.62,4.66,23.93,1009.29,2039.98,3437.00,3228.00,3536.01,349.77,344.03,2.49,0000 0000 0000 0000 000000
2015-07-22 03:15:27,0.00,0.03,0.00,23.92,27.25,29.63,4.74,23.82,1009.29,2039.98,3436.95,3227.99,3536.00,350.12,344.31,2.52,0000 0000 0000 0000 000000
2015-07-22 03:20:28,0.01,0.03,0.00,23.92,27.25,29.63,4.69,23.84,1009.25,2039.97,3436.43,3227.96,3535.98,350.35,344.49,2.55,0000 0000 0000 0000 000000
2015-07-22 03:25:29,0.04,0.03,0.00,23.95,27.26,29.64,4.75,23.85,1009.15,2039.92,3436.02,3227.45,3535.49,350.10,344.23,2.58,0000 0000 0000 0000 000000
2015-07-22 03:30:30,0.01,0.03,0.00,23.96,27.27,29.65,4.73,23.89,1009.09,2039.88,3436.00,3227.07,3535.07,350.25,344.23,2.61,0000 0000 0000 0000 000000
2015-07-22 03:35:31,0.01,0.03,0.00,23.97,27.27,29.66,4.68,23.88,1009.04,2039.83,3435.97,3227.02,3535.02,349.96,343.93,2.64,0000 0000 0000 0000 000000
2015-07-22 03:40:33,0.00,0.03,0.00,23.97,27.29,29.67,4.67,23.84,1008.83,2039.81,3435.70,3227.00,3535.00,349.97,343.97,2.67,0000 0000 0000 0000 000000
2015-07-22 03:45:34,0.01,0.03,0.00,23.98,27.30,29.68,4.76,23.83,1008.81,2039.76,3435.16,3227.00,3535.00,350.51,344.22,2.70,0000 0000 0000 0000 000000
2015-07-22 03:50:35,-0.02,0.03,0.00,23.99,27.30,29.69,4.70,23.84,1008.81,2039.62,3435.01,3226.97,3534.87,350.13,343.68,2.73,0000 0000 0000 0000 000000
2015-07-22 03:55:37,0.02,0.03,0.00,23.99,27.32,29.70,4.70,23.86,1008.80,2039.58,3434.98,3226.80,3534.44,349.77,343.64,2.75,0000 0000 0000 0000 000000
2015-07-22 04:00:38,-0.02,0.03,0.00,24.00,27.32,29.71,4.68,24.04,1008.80,2039.16,3434.57,3226.17,3534.02,350.34,344.19,2.78,0000 0000 0000 0000 000000
2015-07-22 04:05:39,0.01,0.03,0.00,24.02,27.33,29.72,4.72,23.88,1008.79,2039.14,3434.12,3226.00,3534.00,350.07,343.96,2.81,0000 0000 0000 0000 000000
2015-07-22 04:10:40,0.00,0.03,0.00,24.03,27.35,29.73,4.69,23.88,1008.78,2039.10,3434.01,3226.00,3533.98,349.67,343.57,2.84,0000 0000 0000 0000 000000
2015-07-22 04:15:41,0.03,0.03,0.00,24.02,27.35,29.73,4.65,23.91,1008.78,2039.17,3433.99,3226.00,3533.96,349.61,343.44,2.87,0000 0000 0000 0000 000000
2015-07-22 04:20:43,-0.01,0.03,0.00,24.04,27.36,29.75,4.78,23.98,1008.80,2039.15,3433.92,3225.96,3533.74,350.45,344.32,2.90,0000 0000 0000 0000 000000
2015-07-22 04:25:44,0.02,0.03,0.00,24.04,27.37,29.76,4.71,23.82,1008.77,2039.09,3433.32,3225.84,3533.25,350.30,344.09,2.93,0000 0000 0000 0000 000000
2015-07-22 04:30:45,0.04,0.03,0.00,24.04,27.37,29.76,4.72,23.90,1008.70,2039.04,3433.02,3225.18,3533.01,349.98,343.53,2.96,0000 0000 0000 0000 000000
2015-07-22 04:35:46,0.00,0.04,0.00,24.04,27.39,29.76,4.66,23.87,1008.59,2039.03,3432.98,3225.01,3532.99,350.26,343.98,2.99,0000 0000 0000 0000 000000
2015-07-22 04:40:48,0.01,0.04,0.00,24.06,27.40,29.78,4.71,23.90,1008.52,2039.02,3432.71,3225.00,3532.92,350.17,343.85,3.02,0000 0000 0000 0000 000000
2015-07-22 04:45:49,0.03,0.04,0.00,24.07,27.40,29.78,4.68,23.86,1008.43,2039.02,3432.14,3224.98,3532.37,350.02,343.73,3.05,0000 0000 0000 0000 000000
2015-07-22 04:50:50,0.01,0.04,0.00,24.07,27.41,29.79,4.75,23.88,1008.35,2039.00,3431.99,3224.79,3532.02,350.04,343.58,3.08,0000 0000 0000 0000 000000
2015-07-22 04:55:51,0.03,0.04,0.00,24.07,27.42,29.80,4.68,23.78,1008.36,2039.00,3431.80,3224.12,3531.99,349.97,343.59,3.11,0000 0000 0000 0000 000000
2015-07-22 05:00:53,0.04,0.04,0.00,24.07,27.42,29.81,4.81,23.98,1008.32,2039.00,3431.07,3224.01,3531.45,350.28,343.77,3.14,0000 0000 0000 0000 000000
2015-07-22 05:05:54,0.00,0.04,0.00,24.09,27.44,29.82,4.78,23.92,1008.32,2039.00,3430.99,3224.00,3531.03,349.90,343.50,3.16,0000 0000 0000 0000 000000
2015-07-22 05:10:55,0.01,0.04,0.00,24.10,27.45,29.82,4.66,23.83,1008.32,2038.99,3430.68,3223.92,3531.00,349.54,343.15,3.19,0000 0000 0000 0000 000000
2015-07-22 05:15:57,0.05,0.04,0.00,24.10,27.45,29.83,4.73,23.83,1008.31,2038.99,3430.04,3223.28,3530.95,349.79,343.36,3.22,0000 0000 0000 0000 000000
2015-07-22 05:20:58,0.02,0.04,0.00,24.12,27.47,29.83,4.79,23.88,1008.31,2038.99,3429.99,3223.02,3530.39,350.37,343.92,3.25,0000 0000 0000 0000 000000
2015-07-22 05:25:59,0.02,0.04,0.00,24.12,27.47,29.85,4.67,23.90,1008.31,2038.99,3429.40,3222.99,3530.01,349.90,343.29,3.28,0000 0000 0000 0000 000000
2015-07-22 05:31:00,0.01,0.04,0.00,24.13,27.47,29.85,4.72,24.02,1008.31,2038.99,3429.01,3222.91,3529.98,350.08,343.63,3.31,0000 0000 0000 0000 000000
2015-07-22 05:36:01,0.03,0.04,0.00,24.14,27.50,29.86,4.76,23.91,1008.31,2038.99,3428.98,3222.59,3529.68,349.95,343.40,3.34,0000 0000 0000 0000 000000
2015-07-22 05:41:03,0.05,0.05,0.00,24.15,27.50,29.87,4.75,23.95,1008.31,2038.99,3428.38,3222.04,3529.05,350.34,343.84,3.37,0000 0000 0000 0000 000000
2015-07-22 05:46:04,0.00,0.05,0.00,24.16,27.50,29.88,4.71,23.86,1008.30,2038.98,3428.00,3221.99,3528.97,350.74,344.35,3.40,0000 0000 0000 0000 000000
2015-07-22 05:51:05,0.03,0.05,0.00,24.17,27.52,29.89,4.69,23.99,1008.23,2038.96,3427.84,3221.90,3528.49,350.08,343.38,3.43,0000 0000 0000 0000 000000
2015-07-22 05:56:06,0.05,0.05,0.00,24.17,27.52,29.90,4.74,23.99,1008.10,2038.93,3427.12,3221.24,3528.02,350.62,343.91,3.46,0000 0000 0000 0000 000000
2015-07-22 06:01:07,-0.02,0.05,0.00,24.17,27.52,29.90,4.73,24.07,1007.99,2038.65,3426.92,3221.01,3527.92,349.68,343.06,3.49,0000 0000 0000 0000 000000
2015-07-22 06:06:09,0.02,0.05,0.00,24.18,27.54,29.91,4.75,23.90,1008.01,2038.60,3426.37,3220.98,3527.35,350.47,343.84,3.52,0000 0000 0000 0000 000000
2015-07-22 06:11:10,0.01,0.05,0.00,24.20,27.55,29.92,4.69,23.94,1008.30,2038.50,3426.01,3220.66,3527.02,349.83,343.51,3.55,0000 0000 0000 0000 000000
2015-07-22 06:16:12,-0.01,0.05,0.00,24.22,27.55,29.92,4.77,23.94,1008.31,2038.25,3425.87,3220.04,3526.96,350.21,343.68,3.57,0000 0000 0000 0000 000000
2015-07-22 06:21:13,0.04,0.05,0.00,24.21,27.57,29.94,4.69,23.89,1008.31,2038.30,3425.16,3220.00,3526.38,350.14,343.56,3.60,0000 0000 0000 0000 000000
2015-07-22 06:26:14,0.02,0.05,0.00,24.22,27.57,29.94,4.65,23.81,1008.31,2038.24,3425.00,3219.97,3526.02,349.83,343.27,3.63,0000 0000 0000 0000 000000
2015-07-22 06:31:15,0.00,0.05,0.00,24.23,27.58,29.95,4.69,23.95,1008.32,2038.21,3424.84,3219.53,3525.99,349.97,343.31,3.66,0000 0000 0000 0000 000000
2015-07-22 06:36:16,0.07,0.05,0.00,24.24,27.60,29.96,4.69,23.88,1008.32,2038.11,3424.05,3218.73,3525.26,349.90,343.37,3.69,0000 0000 0000 0000 000000
2015-07-22 06:41:17,0.04,0.05,0.00,24.25,27.60,29.98,4.72,23.93,1008.26,2038.06,3423.44,3218.09,3524.51,350.23,343.67,3.72,0000 0000 0000 0000 000000
2015-07-22 06:46:19,0.01,0.05,0.00,24.24,27.61,29.98,4.70,23.93,1007.97,2038.06,3423.01,3218.00,3524.04,349.84,343.13,3.75,0000 0000 0000 0000 000000
2015-07-22 06:51:20,0.00,0.05,0.00,24.27,27.62,29.99,4.76,23.89,1007.86,2038.05,3422.82,3217.97,3523.97,350.67,343.80,3.78,0000 0000 0000 0000 000000
2015-07-22 06:56:21,0.04,0.06,0.00,24.27,27.62,30.00,4.67,23.93,1007.84,2038.03,3422.13,3217.66,3523.68,350.07,343.30,3.81,0000 0000 0000 0000 000000
2015-07-22 07:01:23,0.03,0.06,0.00,24.27,27.64,30.00,4.79,23.93,1007.83,2038.01,3421.98,3217.04,3523.03,350.99,344.17,3.84,0000 0000 0000 0000 000000
2015-07-22 07:06:24,0.02,0.06,0.00,24.29,27.65,30.01,4.64,23.89,1007.83,2038.00,3421.47,3216.99,3522.94,349.87,343.28,3.87,0000 0000 0000 0000 000000
2015-07-22 07:11:25,0.04,0.06,0.00,24.29,27.65,30.03,4.69,23.84,1007.83,2038.00,3421.03,3216.75,3522.18,350.56,343.46,3.90,0000 0000 0000 0000 000000
2015-07-22 07:16:26,0.03,0.06,0.00,24.30,27.67,30.04,4.68,23.82,1007.83,2038.00,3420.86,3216.06,3522.00,350.17,343.36,3.93,0000 0000 0000 0000 000000
2015-07-22 07:21:27,0.02,0.06,0.00,24.32,27.67,30.05,4.73,23.92,1007.83,2038.00,3420.16,3216.00,3521.80,350.14,343.25,3.96,0000 0000 0000 0000 000000
2015-07-22 07:26:29,0.01,0.06,0.00,24.32,27.69,30.05,4.67,23.93,1007.83,2037.99,3419.99,3215.97,3521.07,349.63,342.68,3.98,0000 0000 0000 0000 000000
2015-07-22 07:31:30,0.02,0.06,0.00,24.32,27.70,30.07,4.69,23.93,1007.83,2037.99,3419.89,3215.71,3521.00,349.76,342.99,4.01,0000 0000 0000 0000 000000
2015-07-22 07:36:31,0.04,0.06,0.00,24.33,27.71,30.08,4.75,23.98,1007.83,2037.99,3419.15,3215.07,3520.83,350.37,343.35,4.04,0000 0000 0000 0000 000000
2015-07-22 07:41:33,0.01,0.06,0.00,24.35,27.72,30.09,4.74,23.97,1007.83,2037.98,3419.00,3215.00,3520.17,350.16,343.28,4.07,0000 0000 0000 0000 000000
2015-07-22 07:46:34,0.01,0.06,0.00,24.35,27.72,30.09,4.78,23.97,1007.82,2037.98,3418.78,3214.98,3520.00,350.49,343.38,4.10,0000 0000 0000 0000 000000
2015-07-22 07:51:35,0.04,0.06,0.00,24.35,27.74,30.10,4.66,23.90,1007.82,2037.97,3418.07,3214.63,3519.98,349.65,342.59,4.13,0000 0000 0000 0000 000000
2015-07-22 07:56:36,0.02,0.07,0.00,24.36,27.75,30.11,4.67,24.05,1007.83,2037.95,3417.98,3214.08,3519.64,350.06,343.08,4.16,0000 0000 0000 0000 000000
2015-07-22 08:01:38,0.02,0.07,0.00,24.38,27.75,30.11,4.62,23.87,1007.83,2037.89,3417.54,3213.99,3519.03,349.64,342.71,4.19,0000 0000 0000 0000 000000
2015-07-22 08:06:39,-0.01,0.07,0.00,24.40,27.77,30.12,4.67,23.92,1007.79,2037.83,3417.05,3213.91,3519.00,349.76,342.82,4.22,0000 0000 0000 0000 000000
2015-07-22 08:11:40,0.03,0.07,0.00,24.40,27.77,30.13,4.72,23.94,1007.82,2037.64,3416.96,3213.30,3518.75,350.28,343.20,4.25,0000 0000 0000 0000 000000
2015-07-22 08:16:42,0.02,0.07,0.00,24.40,27.79,30.15,4.70,23.98,1007.83,2037.43,3416.28,3213.02,3518.11,350.53,343.73,4.28,0000 0000 0000 0000 000000
2015-07-22 08:21:43,-0.03,0.07,0.00,24.41,27.80,30.15,4.64,23.85,1007.84,2037.30,3416.01,3213.00,3518.00,349.77,342.69,4.31,0000 0000 0000 0000 000000
2015-07-22 08:26:45,-0.01,0.07,0.00,24.42,27.80,30.16,4.75,23.99,1007.84,2037.16,3415.97,3212.97,3517.93,350.08,343.00,4.34,0000 0000 0000 0000 000000
2015-07-22 08:31:46,0.05,0.07,0.00,24.42,27.81,30.18,4.67,23.99,1007.84,2037.05,3415.40,3212.47,3517.30,349.96,342.89,4.37,0000 0000 0000 0000 000000
2015-07-22 08:36:47,0.01,0.07,0.00,24.42,27.82,30.18,4.68,23.83,1007.83,2037.04,3415.02,3212.03,3517.01,349.84,342.90,4.39,0000 0000 0000 0000 000000
2015-07-22 08:41:49,-0.00,0.07,0.00,24.42,27.82,30.20,4.72,23.86,1007.84,2037.01,3414.94,3212.00,3516.93,350.13,343.34,4.42,0000 0000 0000 0000 000000
2015-07-22 08:46:49,0.03,0.07,0.00,24.42,27.84,30.20,4.75,23.94,1007.83,2037.00,3414.44,3211.98,3516.47,350.11,343.03,4.45,0000 0000 0000 0000 000000
2015-07-22 08:51:51,0.03,0.07,0.00,24.42,27.85,30.21,4.63,23.93,1007.83,2037.00,3414.01,3211.61,3516.01,349.78,342.85,4.48,0000 0000 0000 0000 000000
2015-07-22 08:56:52,0.03,0.07,0.00,24.42,27.85,30.23,4.75,24.00,1007.82,2037.00,3413.77,3211.05,3515.96,350.05,343.18,4.51,0000 0000 0000 0000 000000
2015-07-22 09:01:53,0.02,0.07,0.00,24.42,27.87,30.24,4.71,23.94,1007.81,2037.00,3413.06,3211.00,3515.44,350.37,343.39,4.54,0000 0000 0000 0000 000000
2015-07-22 09:06:55,0.00,0.07,0.00,24.41,27.87,30.24,4.69,23.87,1007.80,2037.00,3412.99,3210.97,3515.05,350.02,343.05,4.57,0000 0000 0000 0000 000000
2015-07-22 09:11:55,0.04,0.07,0.00,24.41,27.87,30.25,4.71,23.88,1007.57,2037.00,3412.74,3210.48,3514.98,349.75,342.86,4.60,0000 0000 0000 0000 000000
2015-07-22 09:16:57,0.04,0.07,0.00,24.42,27.89,30.26,4.63,23.84,1007.37,2036.99,3412.04,3210.02,3514.54,349.80,342.79,4.63,0000 0000 0000 0000 000000
2015-07-22 09:21:58,0.00,0.08,0.00,24.42,27.90,30.26,4.72,23.97,1007.36,2036.99,3411.99,3210.00,3514.07,350.24,343.14,4.66,0000 0000 0000 0000 000000
2015-07-22 09:26:59,0.02,0.08,0.00,24.44,27.90,30.26,4.73,23.91,1007.35,2036.98,3411.68,3209.95,3513.99,350.03,342.64,4.69,0000 0000 0000 0000 000000
2015-07-22 09:32:00,0.04,0.08,0.00,24.46,27.90,30.26,4.67,23.96,1007.36,2036.97,3411.06,3209.46,3513.83,349.76,342.67,4.72,0000 0000 0000 0000 000000
2015-07-22 09:37:02,0.02,0.08,0.00,24.47,27.92,30.27,4.73,23.93,1007.34,2036.97,3411.00,3209.04,3513.17,350.16,343.03,4.75,0000 0000 0000 0000 000000
2015-07-22 09:42:03,-0.00,0.08,0.00,24.47,27.92,30.28,4.73,23.82,1007.34,2036.92,3410.74,3209.00,3513.00,350.54,343.23,4.78,0000 0000 0000 0000 000000
2015-07-22 09:47:04,0.01,0.08,0.00,24.47,27.92,30.29,4.65,23.87,1007.34,2036.85,3410.07,3208.98,3512.97,350.06,342.70,4.80,0000 0000 0000 0000 000000
2015-07-22 09:52:05,0.00,0.08,0.00,24.47,27.93,30.29,4.70,23.79,1007.33,2036.74,3409.98,3208.67,3512.51,350.12,342.90,4.83,0000 0000 0000 0000 000000
2015-07-22 09:57:07,0.04,0.08,0.00,24.47,27.95,30.31,4.75,23.95,1007.23,2036.61,3409.29,3208.08,3512.02,350.13,342.90,4.86,0000 0000 0000 0000 000000
2015-07-22 10:02:08,0.03,0.08,0.00,24.47,27.95,30.30,4.75,24.04,1006.91,2036.63,3409.00,3208.00,3512.00,350.28,342.94,4.89,0000 0000 0000 0000 000000
2015-07-22 10:07:09,0.01,0.08,0.00,24.47,27.95,30.31,4.71,23.99,1006.86,2036.80,3408.99,3208.00,3511.97,350.25,342.78,4.92,0000 0000 0000 0000 000000
2015-07-22 10:12:11,-0.02,0.08,0.00,24.47,27.97,30.32,4.67,23.91,1006.85,2036.53,3408.72,3207.92,3511.58,349.73,342.46,4.95,0000 0000 0000 0000 000000
2015-07-22 10:17:12,0.00,0.08,0.00,24.47,27.97,30.33,4.67,24.15,1006.85,2036.14,3408.05,3207.48,3511.02,349.97,342.74,4.98,0000 0000 0000 0000 000000
2015-07-22 10:22:13,0.01,0.08,0.00,24.46,27.97,30.34,4.75,24.08,1006.85,2036.11,3408.00,3207.05,3511.00,350.50,343.04,5.01,0000 0000 0000 0000 000000
2015-07-22 10:27:14,0.00,0.08,0.00,24.46,27.97,30.34,4.68,23.98,1006.85,2036.08,3407.97,3207.01,3510.97,349.76,342.37,5.04,0000 0000 0000 0000 000000
2015-07-22 10:32:16,0.03,0.08,0.00,24.47,27.99,30.34,4.64,23.96,1006.86,2036.08,3407.56,3207.00,3510.52,349.87,342.33,5.07,0000 0000 0000 0000 000000
2015-07-22 10:37:17,0.01,0.08,0.00,24.47,28.00,30.35,4.71,24.21,1006.84,2036.05,3407.04,3206.99,3510.08,350.17,342.84,5.10,0000 0000 0000 0000 000000
2015-07-22 10:42:18,0.01,0.08,0.00,24.48,28.00,30.36,4.67,24.22,1006.77,2036.03,3406.98,3206.66,3510.00,349.67,342.36,5.13,0000 0000 0000 0000 000000
2015-07-22 10:47:19,0.01,0.08,0.00,24.46,28.00,30.35,4.70,24.05,1006.80,2036.01,3406.90,3206.27,3509.98,350.07,342.58,5.16,0000 0000 0000 0000 000000
2015-07-22 10:52:20,0.03,0.08,0.00,24.46,28.00,30.36,4.64,23.99,1006.85,2036.03,3406.45,3206.11,3509.87,349.67,342.32,5.19,0000 0000 0000 0000 000000
2015-07-22 10:57:22,0.02,0.08,0.00,24.46,28.00,30.37,4.61,23.92,1006.85,2036.01,3406.03,3206.01,3509.32,349.15,341.90,5.21,0000 0000 0000 0000 000000
2015-07-22 11:02:23,0.01,0.08,0.00,24.45,28.02,30.37,4.73,23.92,1006.87,2036.01,3406.00,3206.00,3509.03,349.83,342.41,5.24,0000 0000 0000 0000 000000
2015-07-22 11:07:24,-0.00,0.08,0.00,24.46,28.02,30.38,4.66,23.88,1006.88,2036.00,3405.98,3205.99,3509.01,349.77,342.57,5.27,0000 0000 0000 0000 000000
2015-07-22 11:12:25,0.00,0.08,0.00,24.47,28.02,30.37,4.65,23.92,1007.00,2036.00,3405.95,3205.99,3509.00,350.06,342.65,5.30,0000 0000 0000 0000 000000
2015-07-22 11:17:27,0.01,0.08,0.00,24.45,28.02,30.38,4.69,23.84,1007.31,2036.00,3405.59,3205.94,3509.00,350.25,342.98,5.33,0000 0000 0000 0000 000000
2015-07-22 11:22:28,0.03,0.09,0.00,24.46,28.02,30.38,4.67,23.82,1007.32,2036.00,3405.12,3205.76,3508.95,350.01,342.83,5.36,0000 0000 0000 0000 000000
2015-07-22 11:27:29,0.03,0.09,0.00,24.45,28.02,30.38,4.65,23.82,1007.32,2036.00,3405.01,3205.27,3508.57,350.04,342.81,5.39,0000 0000 0000 0000 000000
2015-07-22 11:32:31,0.01,0.09,0.00,24.45,28.02,30.39,4.76,23.82,1007.31,2036.00,3405.00,3205.09,3508.15,350.04,342.66,5.42,0000 0000 0000 0000 000000
2015-07-22 11:37:32,0.00,0.09,0.00,24.47,28.03,30.39,4.67,23.83,1007.26,2036.00,3404.97,3205.01,3508.00,349.73,342.60,5.45,0000 0000 0000 0000 000000
2015-07-22 11:42:33,0.01,0.09,0.00,24.47,28.04,30.39,4.76,23.81,1007.04,2036.00,3404.61,3205.00,3508.00,350.10,342.84,5.48,0000 0000 0000 0000 000000
2015-07-22 11:47:34,0.01,0.09,0.00,24.47,28.05,30.39,4.65,23.85,1006.98,2036.00,3404.06,3205.00,3507.99,350.33,343.10,5.51,0000 0000 0000 0000 000000
2015-07-22 11:52:36,0.00,0.09,0.00,24.47,28.05,30.40,4.69,23.82,1007.02,2036.00,3404.01,3204.97,3507.93,350.16,342.87,5.54,0000 0000 0000 0000 000000
2015-07-22 11:57:37,0.02,0.09,0.00,24.47,28.05,30.39,4.70,23.84,1007.21,2036.00,3403.99,3204.91,3507.36,350.36,343.20,5.57,0000 0000 0000 0000 000000
2015-07-22 12:02:38,-0.00,0.09,0.00,24.46,28.05,30.40,4.68,23.77,1007.34,2035.99,3403.98,3204.89,3507.16,349.97,342.75,5.60,0000 0000 0000 0000 000000
2015-07-22 12:07:39,0.01,0.09,0.00,24.46,28.05,30.40,4.68,23.83,1007.34,2035.99,3403.98,3204.80,3507.12,349.89,342.77,5.62,0000 0000 0000 0000 000000
2015-07-22 12:12:40,0.01,0.09,0.00,24.47,28.05,30.40,4.66,23.82,1007.34,2035.99,3403.90,3204.66,3507.03,349.92,342.79,5.65,0000 0000 0000 0000 000000
2015-07-22 12:17:42,0.03,0.09,0.00,24.45,28.05,30.41,4.67,23.96,1007.34,2035.99,3403.55,3204.34,3507.02,349.50,342.45,5.68,0000 0000 0000 0000 000000
2015-07-22 12:22:43,0.01,0.09,0.00,24.45,28.05,30.41,4.74,24.00,1007.25,2035.99,3403.06,3204.06,3506.99,350.31,343.13,5.71,0000 0000 0000 0000 000000
2015-07-22 12:27:45,-0.00,0.09,0.00,24.45,28.05,30.41,4.72,23.93,1006.91,2035.99,3403.00,3204.01,3506.98,350.38,343.18,5.74,0000 0000 0000 0000 000000
2015-07-22 12:32:46,0.01,0.09,0.00,24.44,28.05,30.39,4.66,23.98,1006.87,2035.99,3403.00,3204.00,3506.72,350.03,342.87,5.77,0000 0000 0000 0000 000000
2015-07-22 12:37:47,0.01,0.09,0.00,24.45,28.05,30.40,4.69,24.00,1006.86,2035.99,3402.95,3204.00,3506.34,350.05,342.73,5.80,0000 0000 0000 0000 000000
2015-07-22 12:42:49,0.00,0.09,0.00,24.43,28.05,30.40,4.70,24.07,1006.85,2035.99,3402.90,3204.00,3506.16,350.14,342.84,5.83,0000 0000 0000 0000 000000
2015-07-22 12:47:50,0.01,0.09,0.00,24.42,28.05,30.41,4.78,24.03,1006.85,2035.99,3402.48,3203.98,3506.02,350.39,343.17,5.86,0000 0000 0000 0000 000000
2015-07-22 12:52:51,0.01,0.09,0.00,24.42,28.05,30.41,4.71,24.07,1006.85,2035.98,3402.08,3203.96,3506.00,349.93,342.45,5.89,0000 0000 0000 0000 000000
2015-07-22 12:57:53,0.01,0.09,0.00,24.42,28.05,30.42,4.72,24.01,1006.86,2035.98,3402.00,3203.81,3505.99,350.18,342.93,5.92,0000 0000 0000 0000 000000
2015-07-22 13:02:54,0.01,0.09,0.00,24.42,28.05,30.41,4.69,24.00,1006.86,2035.98,3402.00,3203.59,3505.98,349.99,342.82,5.95,0000 0000 0000 0000 000000
2015-07-22 13:07:55,0.01,0.09,0.00,24.43,28.05,30.42,4.75,23.98,1006.86,2035.99,3401.99,3203.41,3505.98,350.25,342.82,5.98,0000 0000 0000 0000 000000